M I D A S
Marine Information and Data Acquisition System
Tripno 382 of the Zeeleeuw from 2002-08-01 07:53:26 to 2002-08-01 14:23:53
Back to CruiseResearch ActivitiesStationsMapUnderway DataData graphs

EquipmentUnitsComments
TimeDGPSUTC
LatitudeDGPSDM.mWGS84
LongitudeDGPSDM.mWGS84
SpeedMeteo Stationm/sRelative wind speed
DirectionMeteo StationdegRelative wind direction
TemperatureMeteo Stationdeg CelciusAir temperature
PressureMeteo StationPaAtmospheric pressure
HumidityMeteo Station%Relative humidity
Missing or incorrect values are displayed as -999
Metereological data collected by the RV Zeeleeuw from 2002-08-01 07:53:26 to 2002-08-01 14:23:53
                                                                                    Next 1000 lines
Time Latitude Longitude Speed Direction Temperature Pressure Humidity
2002-08-01 07:53:32 51°13.663 2°55.955 1.9 19 17.3 101190 72
2002-08-01 07:53:38 51°13.663 2°55.955 3.4 25 17.4 101190 72
2002-08-01 07:53:43 51°13.663 2°55.954 3.7 21 17.4 101190 72
2002-08-01 07:53:48 51°13.663 2°55.953 4.1 21 17.4 101190 73
2002-08-01 07:53:52 51°13.663 2°55.952 3.1 14 17.4 101190 73
2002-08-01 07:53:58 51°13.663 2°55.95 3.4 32 17.4 101190 73
2002-08-01 07:54:03 51°13.663 2°55.948 3.7 31 17.4 101190 73
2002-08-01 07:54:08 51°13.664 2°55.946 3.7 17 17.4 101190 73
2002-08-01 07:54:14 51°13.665 2°55.942 3.3 23 17.4 101190 73
2002-08-01 07:54:19 51°13.666 2°55.938 4.3 29 17.4 101190 73
2002-08-01 07:54:25 51°13.667 2°55.933 4.7 26 17.4 101190 73
2002-08-01 07:54:29 51°13.668 2°55.929 4.5 31 17.4 101190 73
2002-08-01 07:54:34 51°13.668 2°55.925 4.1 27 17.4 101190 73
2002-08-01 07:54:39 51°13.669 2°55.92 4 31 17.4 101190 73
2002-08-01 07:54:44 51°13.67 2°55.915 3.1 38 17.4 101190 73
2002-08-01 07:54:49 51°13.671 2°55.909 2.9 42 17.4 101190 73
2002-08-01 07:54:55 51°13.671 2°55.903 3.2 42 17.4 101190 73
2002-08-01 07:54:59 51°13.672 2°55.898 2.3 33 17.4 101190 73
2002-08-01 07:55:04 51°13.672 2°55.893 3.7 31 17.4 101190 73
2002-08-01 07:55:09 51°13.673 2°55.887 3.4 22 17.3 101190 73
2002-08-01 07:55:14 51°13.673 2°55.881 4.1 29 17.3 101190 73
2002-08-01 07:55:19 51°13.674 2°55.875 4 26 17.4 101190 73
2002-08-01 07:55:24 51°13.674 2°55.869 3.7 26 17.4 101190 73
2002-08-01 07:55:29 51°13.675 2°55.863 4.2 28 17.3 101190 73
2002-08-01 07:55:35 51°13.675 2°55.856 3.7 34 17.3 101190 73
2002-08-01 07:55:39 51°13.676 2°55.851 3.8 30 17.3 101190 73
2002-08-01 07:55:44 51°13.676 2°55.844 4.1 26 17.3 101190 73
2002-08-01 07:55:49 51°13.677 2°55.838 3.7 29 17.3 101190 73
2002-08-01 07:55:55 51°13.677 2°55.83 3.8 35 17.3 101190 73
2002-08-01 07:55:59 51°13.678 2°55.825 3.9 34 17.3 101190 73
2002-08-01 07:56:04 51°13.678 2°55.818 3.9 36 17.3 101190 73
2002-08-01 07:56:09 51°13.678 2°55.812 3.7 45 17.3 101190 73
2002-08-01 07:56:15 51°13.679 2°55.804 3.2 41 17.3 101190 73
2002-08-01 07:56:19 51°13.679 2°55.799 3.3 43 17.3 101190 73
2002-08-01 07:56:24 51°13.68 2°55.793 3.6 34 17.3 101190 73
2002-08-01 07:56:29 51°13.68 2°55.787 3.3 27 17.4 101190 74
2002-08-01 07:56:35 51°13.68 2°55.779 3.8 34 17.4 101190 74
2002-08-01 07:56:39 51°13.68 2°55.775 3.1 31 17.4 101190 74
2002-08-01 07:56:44 51°13.68 2°55.769 2.9 21 17.4 101190 74
2002-08-01 07:56:48 51°13.68 2°55.765 3.2 41 17.4 101190 74
2002-08-01 07:56:53 51°13.68 2°55.76 2.4 30 17.4 101190 74
2002-08-01 07:56:59 51°13.68 2°55.754 2 26 17.4 101190 74
2002-08-01 07:57:03 51°13.68 2°55.751 1.5 19 17.4 101190 74
2002-08-01 07:57:08 51°13.68 2°55.748 2.4 27 17.4 101190 74
2002-08-01 07:57:13 51°13.68 2°55.745 2.3 17 17.4 101190 74
2002-08-01 07:57:18 51°13.68 2°55.743 2.2 8 17.4 101190 74
2002-08-01 07:57:23 51°13.68 2°55.741 2.2 356 17.4 101190 74
2002-08-01 07:57:28 51°13.679 2°55.739 2.4 17 17.4 101190 74
2002-08-01 07:57:33 51°13.679 2°55.738 1.6 3 17.4 101190 74
2002-08-01 07:57:39 51°13.679 2°55.737 1.1 333 17.4 101190 74
2002-08-01 07:57:44 51°13.68 2°55.736 1.8 357 17.4 101190 74
2002-08-01 07:57:48 51°13.681 2°55.735 1.7 2 17.4 101190 74
2002-08-01 07:57:53 51°13.682 2°55.734 1.1 5 17.4 101190 74
2002-08-01 07:57:58 51°13.683 2°55.735 1.3 343 17.5 101190 74
2002-08-01 07:58:03 51°13.683 2°55.735 0.5 353 17.5 101190 74
2002-08-01 07:58:08 51°13.684 2°55.736 2.4 297 17.5 101190 74
2002-08-01 07:58:13 51°13.685 2°55.736 2.2 306 17.5 101190 74
2002-08-01 07:58:18 51°13.686 2°55.737 1.5 324 17.5 101190 74
2002-08-01 07:58:24 51°13.687 2°55.738 2.6 305 17.5 101190 74
2002-08-01 07:58:28 51°13.689 2°55.738 2.7 312 17.5 101190 74
2002-08-01 07:58:32 51°13.69 2°55.739 2.9 298 17.5 101190 74
2002-08-01 07:58:38 51°13.693 2°55.739 2.9 295 17.5 101190 74
2002-08-01 07:58:44 51°13.696 2°55.739 3.2 294 17.5 101190 74
2002-08-01 07:58:48 51°13.698 2°55.738 2.7 290 17.4 101190 74
2002-08-01 07:58:53 51°13.702 2°55.737 3 274 17.4 101190 74
2002-08-01 07:58:58 51°13.705 2°55.736 3.2 280 17.4 101190 73
2002-08-01 07:59:04 51°13.71 2°55.733 3.4 263 17.4 101190 73
2002-08-01 07:59:08 51°13.714 2°55.73 3.5 256 17.4 101190 73
2002-08-01 07:59:12 51°13.718 2°55.727 4.1 257 17.4 101190 73
2002-08-01 07:59:18 51°13.725 2°55.722 4.5 271 17.4 101180 73
2002-08-01 07:59:24 51°13.731 2°55.716 3.3 253 17.4 101180 73
2002-08-01 07:59:28 51°13.737 2°55.712 4.4 251 17.4 101190 73
2002-08-01 07:59:33 51°13.743 2°55.707 5.4 250 17.4 101190 73
2002-08-01 07:59:38 51°13.75 2°55.701 5.2 254 17.4 101180 73
2002-08-01 07:59:43 51°13.757 2°55.695 5.9 257 17.4 101180 73
2002-08-01 07:59:48 51°13.764 2°55.689 5.7 248 17.4 101180 73
2002-08-01 07:59:54 51°13.773 2°55.681 7 261 17.4 101180 73
2002-08-01 07:59:58 51°13.779 2°55.676 6.4 261 17.4 101180 73
2002-08-01 08:00:03 51°13.787 2°55.669 6.4 240 17.4 101180 73
2002-08-01 08:00:08 51°13.796 2°55.663 5.3 235 17.4 101180 73
2002-08-01 08:00:14 51°13.806 2°55.654 5.2 241 17.4 101180 73
2002-08-01 08:00:19 51°13.814 2°55.646 4.4 245 17.4 101180 73
2002-08-01 08:00:24 51°13.823 2°55.639 4.8 243 17.4 101180 73
2002-08-01 08:00:28 51°13.83 2°55.633 6.2 246 17.4 101180 73
2002-08-01 08:00:34 51°13.842 2°55.625 6.4 246 17.4 101180 73
2002-08-01 08:00:39 51°13.851 2°55.617 5.8 252 17.4 101180 73
2002-08-01 08:00:44 51°13.861 2°55.61 6.1 246 17.4 101180 73
2002-08-01 08:00:48 51°13.868 2°55.605 5.5 241 17.4 101180 73
2002-08-01 08:00:53 51°13.878 2°55.597 5.7 250 17.4 101180 73
2002-08-01 08:00:58 51°13.888 2°55.59 6.1 244 17.4 101180 73
2002-08-01 08:01:03 51°13.898 2°55.583 5.7 245 17.4 101180 73
2002-08-01 08:01:08 51°13.908 2°55.575 7 247 17.4 101180 73
2002-08-01 08:01:12 51°13.915 2°55.569 7.1 256 17.4 101180 73
2002-08-01 08:01:19 51°13.929 2°55.559 6.5 251 17.4 101180 73
2002-08-01 08:01:24 51°13.939 2°55.551 6.6 248 17.4 101180 73
2002-08-01 08:01:28 51°13.947 2°55.546 6.8 261 17.5 101180 73
2002-08-01 08:01:33 51°13.957 2°55.538 5.9 247 17.5 101180 73
2002-08-01 08:01:39 51°13.97 2°55.529 5.3 251 17.4 101180 73
2002-08-01 08:01:44 51°13.98 2°55.521 5.8 240 17.4 101180 73
2002-08-01 08:01:48 51°13.989 2°55.515 7.1 239 17.4 101170 73
2002-08-01 08:01:54 51°14.001 2°55.506 6.8 243 17.4 101170 73
2002-08-01 08:01:59 51°14.011 2°55.498 6.9 246 17.4 101180 73
2002-08-01 08:02:03 51°14.019 2°55.492 5.7 247 17.4 101180 73
2002-08-01 08:02:08 51°14.029 2°55.484 6.2 244 17.4 101180 73
2002-08-01 08:02:13 51°14.039 2°55.476 7.9 248 17.4 101180 73
2002-08-01 08:02:18 51°14.05 2°55.469 9 249 17.4 101180 73
2002-08-01 08:02:24 51°14.062 2°55.46 8.1 248 17.4 101180 73
2002-08-01 08:02:28 51°14.07 2°55.454 8.2 246 17.4 101180 74
2002-08-01 08:02:33 51°14.08 2°55.446 7.9 259 17.4 101180 74
2002-08-01 08:02:38 51°14.09 2°55.438 8.6 253 17.4 101180 74
2002-08-01 08:02:43 51°14.101 2°55.431 8.2 255 17.4 101180 74
2002-08-01 08:02:48 51°14.111 2°55.423 7.9 254 17.4 101170 74
2002-08-01 08:02:54 51°14.123 2°55.414 7.3 251 17.4 101170 74
2002-08-01 08:02:58 51°14.131 2°55.407 7.2 251 17.4 101180 74
2002-08-01 08:03:04 51°14.144 2°55.398 7.4 255 17.4 101180 74
2002-08-01 08:03:08 51°14.153 2°55.391 7.7 251 17.4 101170 74
2002-08-01 08:03:12 51°14.16 2°55.383 8 253 17.4 101170 74
2002-08-01 08:03:18 51°14.172 2°55.372 8 247 17.4 101170 74
2002-08-01 08:03:24 51°14.184 2°55.361 7.9 236 17.4 101170 74
2002-08-01 08:03:28 51°14.192 2°55.352 7.7 246 17.4 101180 75
2002-08-01 08:03:34 51°14.203 2°55.339 8 242 17.4 101180 75
2002-08-01 08:03:38 51°14.21 2°55.33 8.1 243 17.4 101170 75
2002-08-01 08:03:43 51°14.219 2°55.319 7.2 243 17.4 101170 75
2002-08-01 08:03:48 51°14.228 2°55.307 7.6 243 17.4 101170 75
2002-08-01 08:03:54 51°14.239 2°55.293 7.7 247 17.4 101170 75
2002-08-01 08:03:57 51°14.244 2°55.286 7.4 243 17.4 101180 75
2002-08-01 08:04:04 51°14.256 2°55.268 8.7 248 17.4 101180 75
2002-08-01 08:04:08 51°14.262 2°55.257 7.6 245 17.4 101170 76
2002-08-01 08:04:14 51°14.272 2°55.241 8.2 243 17.4 101170 76
2002-08-01 08:04:18 51°14.278 2°55.23 8.2 242 17.4 101180 76
2002-08-01 08:04:24 51°14.287 2°55.213 8.7 240 17.4 101180 76
2002-08-01 08:04:28 51°14.293 2°55.201 9.1 245 17.4 101180 76
2002-08-01 08:04:34 51°14.303 2°55.183 10.1 243 17.4 101180 76
2002-08-01 08:04:39 51°14.31 2°55.167 10 244 17.4 101180 76
2002-08-01 08:04:44 51°14.318 2°55.151 10 244 17.4 101180 76
2002-08-01 08:04:48 51°14.325 2°55.137 9.7 246 17.4 101180 76
2002-08-01 08:04:53 51°14.333 2°55.121 10.1 246 17.4 101180 76
2002-08-01 08:04:58 51°14.341 2°55.103 9.4 244 17.4 101170 75
2002-08-01 08:05:04 51°14.351 2°55.082 10.1 240 17.4 101170 75
2002-08-01 08:05:08 51°14.358 2°55.068 9.9 241 17.3 101170 75
2002-08-01 08:05:14 51°14.368 2°55.047 8.7 241 17.3 101170 75
2002-08-01 08:05:19 51°14.377 2°55.031 9.1 241 17.3 101170 75
2002-08-01 08:05:24 51°14.388 2°55.015 9.6 241 17.3 101170 75
2002-08-01 08:05:28 51°14.395 2°55.002 10.6 244 17.3 101170 75
2002-08-01 08:05:34 51°14.408 2°54.984 10.2 244 17.3 101170 75
2002-08-01 08:05:38 51°14.416 2°54.972 9.5 244 17.3 101170 76
2002-08-01 08:05:44 51°14.429 2°54.954 9.3 241 17.3 101170 76
2002-08-01 08:05:48 51°14.438 2°54.942 9.2 244 17.3 101170 76
2002-08-01 08:05:54 51°14.45 2°54.924 9.7 244 17.3 101170 76
2002-08-01 08:05:59 51°14.461 2°54.909 9.9 239 17.3 101170 76
2002-08-01 08:06:04 51°14.472 2°54.894 9.8 242 17.3 101170 76
2002-08-01 08:06:08 51°14.481 2°54.882 10.4 243 17.3 101170 76
2002-08-01 08:06:14 51°14.494 2°54.864 9.9 245 17.3 101170 76
2002-08-01 08:06:18 51°14.503 2°54.852 9.7 244 17.3 101170 76
2002-08-01 08:06:23 51°14.514 2°54.839 8.9 245 17.3 101170 76
2002-08-01 08:06:28 51°14.526 2°54.825 8.7 246 17.3 101180 76
2002-08-01 08:06:34 51°14.539 2°54.809 8.7 247 17.3 101180 76
2002-08-01 08:06:38 51°14.548 2°54.798 8.4 246 17.3 101170 76
2002-08-01 08:06:43 51°14.56 2°54.784 9 247 17.3 101170 76
2002-08-01 08:06:48 51°14.571 2°54.771 8.7 247 17.3 101170 76
2002-08-01 08:06:53 51°14.582 2°54.757 8.9 246 17.3 101170 76
2002-08-01 08:06:58 51°14.594 2°54.743 8.9 249 17.3 101180 76
2002-08-01 08:07:03 51°14.606 2°54.731 8.5 253 17.3 101180 76
2002-08-01 08:07:08 51°14.618 2°54.718 9.3 252 17.3 101180 76
2002-08-01 08:07:13 51°14.63 2°54.706 9 251 17.3 101180 76
2002-08-01 08:07:18 51°14.642 2°54.693 9 251 17.3 101180 76
2002-08-01 08:07:24 51°14.656 2°54.679 8.1 253 17.3 101180 76
2002-08-01 08:07:28 51°14.665 2°54.669 9.6 249 17.3 101170 76
2002-08-01 08:07:33 51°14.676 2°54.658 9 250 17.3 101170 76
2002-08-01 08:07:39 51°14.689 2°54.645 9.1 249 17.3 101170 76
2002-08-01 08:07:43 51°14.697 2°54.636 9 250 17.3 101170 76
2002-08-01 08:07:48 51°14.708 2°54.626 8.5 251 17.3 101170 76
2002-08-01 08:07:54 51°14.72 2°54.613 8.6 253 17.3 101170 76
2002-08-01 08:07:58 51°14.728 2°54.605 7.9 253 17.3 101180 77
2002-08-01 08:08:04 51°14.741 2°54.592 8.4 254 17.3 101180 77
2002-08-01 08:08:08 51°14.749 2°54.584 8.1 251 17.3 101170 77
2002-08-01 08:08:14 51°14.761 2°54.573 7.9 254 17.3 101170 77
2002-08-01 08:08:19 51°14.771 2°54.564 7.6 254 17.3 101170 76
2002-08-01 08:08:24 51°14.781 2°54.556 7.5 256 17.3 101170 76
2002-08-01 08:08:28 51°14.79 2°54.551 7.4 258 17.3 101170 77
2002-08-01 08:08:33 51°14.801 2°54.545 7.3 253 17.3 101170 77
2002-08-01 08:08:38 51°14.811 2°54.539 7.1 255 17.3 101180 76
2002-08-01 08:08:43 51°14.822 2°54.532 8.2 255 17.3 101180 76
2002-08-01 08:08:48 51°14.833 2°54.527 9.3 257 17.3 101180 76
2002-08-01 08:08:54 51°14.846 2°54.52 9.4 257 17.3 101180 76
2002-08-01 08:08:58 51°14.856 2°54.515 9.4 259 17.3 101180 76
2002-08-01 08:09:04 51°14.871 2°54.509 8.8 262 17.3 101180 76
2002-08-01 08:09:08 51°14.882 2°54.506 8.8 262 17.3 101180 76
2002-08-01 08:09:13 51°14.896 2°54.502 8.4 262 17.3 101180 76
2002-08-01 08:09:18 51°14.91 2°54.5 9 257 17.2 101170 76
2002-08-01 08:09:24 51°14.928 2°54.5 8.9 258 17.2 101170 76
2002-08-01 08:09:28 51°14.941 2°54.501 8.4 260 17.2 101170 75
2002-08-01 08:09:33 51°14.956 2°54.503 8.5 261 17.2 101170 75
2002-08-01 08:09:38 51°14.973 2°54.506 8.5 258 17.2 101170 75
2002-08-01 08:09:43 51°14.989 2°54.509 8.5 261 17.2 101170 75
2002-08-01 08:09:48 51°15.006 2°54.514 8.1 262 17.2 101170 76
2002-08-01 08:09:54 51°15.026 2°54.521 7.6 261 17.2 101170 76
2002-08-01 08:09:58 51°15.04 2°54.527 8.1 266 17.2 101170 76
2002-08-01 08:10:04 51°15.06 2°54.535 8.6 258 17.2 101170 76
2002-08-01 08:10:08 51°15.074 2°54.542 8.6 260 17.2 101170 76
2002-08-01 08:10:13 51°15.092 2°54.551 7.7 260 17.2 101170 76
2002-08-01 08:10:18 51°15.109 2°54.561 8.3 261 17.2 101170 76
2002-08-01 08:10:24 51°15.13 2°54.574 8.6 265 17.2 101170 76
2002-08-01 08:10:28 51°15.143 2°54.585 9.3 263 17.2 101180 76
2002-08-01 08:10:34 51°15.163 2°54.603 8.2 264 17.2 101180 76
2002-08-01 08:10:38 51°15.176 2°54.615 8.1 266 17.2 101180 76
2002-08-01 08:10:43 51°15.191 2°54.633 8 265 17.2 101180 76
2002-08-01 08:10:48 51°15.206 2°54.652 7.7 264 17.2 101170 76
2002-08-01 08:10:53 51°15.22 2°54.672 8.2 270 17.2 101170 76
2002-08-01 08:10:58 51°15.234 2°54.691 8.2 269 17.2 101170 76
2002-08-01 08:11:04 51°15.252 2°54.716 7.9 266 17.2 101170 76
2002-08-01 08:11:08 51°15.263 2°54.732 7.8 269 17.2 101170 76
2002-08-01 08:11:14 51°15.28 2°54.756 8.4 267 17.2 101170 76
2002-08-01 08:11:18 51°15.292 2°54.771 8 269 17.2 101180 76
2002-08-01 08:11:24 51°15.31 2°54.795 8.2 271 17.2 101180 76
2002-08-01 08:11:28 51°15.322 2°54.81 7.9 269 17.2 101170 76
2002-08-01 08:11:33 51°15.337 2°54.83 8 273 17.2 101170 76
2002-08-01 08:11:39 51°15.355 2°54.853 7.2 268 17.2 101170 76
2002-08-01 08:11:43 51°15.366 2°54.869 7.2 272 17.2 101170 76
2002-08-01 08:11:48 51°15.382 2°54.889 7 273 17.2 101170 76
2002-08-01 08:11:54 51°15.399 2°54.914 7.9 269 17.2 101170 76
2002-08-01 08:11:58 51°15.411 2°54.93 7.2 269 17.2 101170 76
2002-08-01 08:12:04 51°15.428 2°54.955 6.7 268 17.2 101170 76
2002-08-01 08:12:08 51°15.44 2°54.972 7.1 269 17.2 101180 76
2002-08-01 08:12:14 51°15.456 2°54.998 6.8 269 17.2 101180 76
2002-08-01 08:12:19 51°15.469 2°55.021 7.3 268 17.2 101180 76
2002-08-01 08:12:24 51°15.483 2°55.043 8 273 17.2 101180 76
2002-08-01 08:12:28 51°15.494 2°55.061 7.8 273 17.2 101170 76
2002-08-01 08:12:33 51°15.507 2°55.084 8.1 273 17.2 101170 76
2002-08-01 08:12:38 51°15.521 2°55.106 8.1 268 17.2 101170 76
2002-08-01 08:12:44 51°15.537 2°55.133 7.9 260 17.2 101170 76
2002-08-01 08:12:49 51°15.55 2°55.157 8.8 261 17.2 101170 76
2002-08-01 08:12:53 51°15.56 2°55.175 8.4 267 17.2 101170 76
2002-08-01 08:13:00 51°15.578 2°55.208 8.1 264 17.2 101170 77
2002-08-01 08:13:05 51°15.591 2°55.232 8 268 17.2 101170 77
2002-08-01 08:13:09 51°15.6 2°55.251 7.9 267 17.3 101170 77
2002-08-01 08:13:13 51°15.61 2°55.269 8 270 17.3 101170 77
2002-08-01 08:13:19 51°15.625 2°55.298 7.7 270 17.3 101170 77
2002-08-01 08:13:24 51°15.638 2°55.321 8 265 17.3 101170 77
2002-08-01 08:13:29 51°15.651 2°55.344 7.7 266 17.3 101170 77
2002-08-01 08:13:35 51°15.666 2°55.372 7.4 268 17.3 101170 77
2002-08-01 08:13:39 51°15.677 2°55.391 7.4 266 17.3 101170 77
2002-08-01 08:13:44 51°15.69 2°55.414 6.8 265 17.3 101170 77
2002-08-01 08:13:49 51°15.702 2°55.437 7.2 258 17.2 101170 77
2002-08-01 08:13:55 51°15.718 2°55.465 7.2 259 17.2 101170 77
2002-08-01 08:13:59 51°15.728 2°55.484 6.8 258 17.2 101170 77
2002-08-01 08:14:05 51°15.742 2°55.512 6.8 258 17.2 101170 77
2002-08-01 08:14:09 51°15.752 2°55.532 6.5 257 17.2 101170 77
2002-08-01 08:14:15 51°15.766 2°55.561 6.4 255 17.2 101170 77
2002-08-01 08:14:19 51°15.776 2°55.58 6.4 259 17.3 101170 77
2002-08-01 08:14:24 51°15.788 2°55.605 7 262 17.3 101170 77
2002-08-01 08:14:29 51°15.8 2°55.63 7.4 263 17.3 101180 77
2002-08-01 08:14:35 51°15.814 2°55.659 7.3 255 17.3 101180 77
2002-08-01 08:14:40 51°15.826 2°55.684 8.2 260 17.3 101180 77
2002-08-01 08:14:44 51°15.836 2°55.703 8 255 17.3 101180 77
2002-08-01 08:14:49 51°15.849 2°55.727 8.3 258 17.3 101180 77
2002-08-01 08:14:54 51°15.861 2°55.752 8.5 262 17.3 101180 77
2002-08-01 08:14:59 51°15.873 2°55.775 7.7 259 17.3 101180 77
2002-08-01 08:15:05 51°15.888 2°55.804 6.9 261 17.3 101180 77
2002-08-01 08:15:09 51°15.898 2°55.824 7 256 17.3 101170 77
2002-08-01 08:15:15 51°15.913 2°55.852 7 261 17.3 101170 77
2002-08-01 08:15:19 51°15.922 2°55.872 6.4 257 17.2 101170 77
2002-08-01 08:15:24 51°15.935 2°55.896 7.2 255 17.2 101170 77
2002-08-01 08:15:29 51°15.947 2°55.92 6.9 252 17.3 101180 77
2002-08-01 08:15:35 51°15.962 2°55.949 7.5 255 17.3 101180 77
2002-08-01 08:15:39 51°15.971 2°55.969 6.9 254 17.3 101180 77
2002-08-01 08:15:45 51°15.985 2°55.998 6.8 252 17.3 101180 77
2002-08-01 08:15:49 51°15.995 2°56.018 6.4 255 17.3 101180 77
2002-08-01 08:15:54 51°16.007 2°56.043 6.1 253 17.3 101180 77
2002-08-01 08:15:59 51°16.018 2°56.068 6.4 255 17.3 101180 77
2002-08-01 08:16:04 51°16.029 2°56.094 5.7 253 17.3 101180 77
2002-08-01 08:16:09 51°16.04 2°56.119 5.4 254 17.3 101180 77
2002-08-01 08:16:15 51°16.053 2°56.15 5.5 252 17.3 101180 77
2002-08-01 08:16:20 51°16.065 2°56.176 6.2 252 17.2 101190 77
2002-08-01 08:16:25 51°16.075 2°56.201 5.7 259 17.2 101190 77
2002-08-01 08:16:29 51°16.085 2°56.222 6.1 251 17.2 101180 77
2002-08-01 08:16:35 51°16.098 2°56.253 5.7 256 17.2 101180 77
2002-08-01 08:16:39 51°16.108 2°56.273 6.1 254 17.2 101190 77
2002-08-01 08:16:45 51°16.12 2°56.304 5.9 259 17.2 101190 77
2002-08-01 08:16:49 51°16.129 2°56.324 5.9 257 17.2 101180 77
2002-08-01 08:16:55 51°16.141 2°56.354 5.6 255 17.2 101180 77
2002-08-01 08:17:00 51°16.153 2°56.38 5.4 253 17.2 101190 77
2002-08-01 08:17:05 51°16.164 2°56.405 3.3 263 17.2 101190 77
2002-08-01 08:17:09 51°16.173 2°56.426 6.3 258 17.2 101190 77
2002-08-01 08:17:15 51°16.185 2°56.457 6.8 260 17.2 101190 77
2002-08-01 08:17:20 51°16.196 2°56.483 7.1 259 17.2 101180 77
2002-08-01 08:17:24 51°16.203 2°56.504 6.6 257 17.2 101180 77
2002-08-01 08:17:29 51°16.213 2°56.531 6.9 259 17.2 101190 77
2002-08-01 08:17:35 51°16.224 2°56.562 6.7 256 17.2 101190 77
2002-08-01 08:17:39 51°16.232 2°56.584 6.8 261 17.3 101190 78
2002-08-01 08:17:45 51°16.243 2°56.615 5.9 259 17.3 101190 78
2002-08-01 08:17:49 51°16.251 2°56.636 6.4 263 17.3 101190 78
2002-08-01 08:17:55 51°16.263 2°56.668 6.8 255 17.3 101190 78
2002-08-01 08:18:00 51°16.274 2°56.694 6.7 258 17.3 101180 78
2002-08-01 08:18:04 51°16.282 2°56.714 6.3 264 17.3 101180 78
2002-08-01 08:18:09 51°16.293 2°56.741 6.5 253 17.3 101190 78
2002-08-01 08:18:14 51°16.304 2°56.767 7 262 17.3 101190 78
2002-08-01 08:18:19 51°16.314 2°56.793 6.3 259 17.3 101180 78
2002-08-01 08:18:25 51°16.326 2°56.824 5.7 263 17.3 101180 78
2002-08-01 08:18:29 51°16.334 2°56.845 6.3 262 17.3 101190 78
2002-08-01 08:18:35 51°16.346 2°56.876 6.5 259 17.3 101190 78
2002-08-01 08:18:39 51°16.354 2°56.897 5.7 261 17.3 101190 78
2002-08-01 08:18:45 51°16.367 2°56.928 6.5 256 17.3 101190 78
2002-08-01 08:18:49 51°16.375 2°56.949 6.5 256 17.3 101190 78
2002-08-01 08:18:53 51°16.383 2°56.97 6.2 255 17.3 101190 78
2002-08-01 08:18:59 51°16.395 2°57.001 6.7 253 17.3 101190 78
2002-08-01 08:19:05 51°16.407 2°57.032 6.5 254 17.3 101190 78
2002-08-01 08:19:09 51°16.415 2°57.053 6.3 252 17.3 101190 78
2002-08-01 08:19:15 51°16.427 2°57.084 5.6 255 17.3 101190 78
2002-08-01 08:19:20 51°16.437 2°57.11 5.9 254 17.3 101190 77
2002-08-01 08:19:24 51°16.446 2°57.131 5.6 249 17.3 101190 77
2002-08-01 08:19:29 51°16.456 2°57.157 5.6 256 17.3 101190 77
2002-08-01 08:19:33 51°16.464 2°57.177 5.5 256 17.3 101190 77
2002-08-01 08:19:39 51°16.476 2°57.209 5.4 255 17.3 101190 77
2002-08-01 08:19:45 51°16.488 2°57.24 6 257 17.3 101190 77
2002-08-01 08:19:49 51°16.496 2°57.261 6.3 260 17.2 101190 77
2002-08-01 08:19:55 51°16.508 2°57.292 6.1 261 17.2 101190 77
2002-08-01 08:19:59 51°16.517 2°57.312 5.9 260 17.2 101190 77
2002-08-01 08:20:04 51°16.527 2°57.338 5.7 260 17.2 101190 77
2002-08-01 08:20:09 51°16.538 2°57.364 6 259 17.2 101190 77
2002-08-01 08:20:15 51°16.55 2°57.395 5.9 261 17.2 101190 77
2002-08-01 08:20:20 51°16.561 2°57.421 5.5 259 17.3 101190 77
2002-08-01 08:20:24 51°16.569 2°57.442 5.1 264 17.3 101190 77
2002-08-01 08:20:29 51°16.579 2°57.468 5.1 258 17.3 101190 78
2002-08-01 08:20:34 51°16.59 2°57.494 5.5 263 17.3 101190 78
2002-08-01 08:20:39 51°16.6 2°57.52 5.3 262 17.3 101190 78
2002-08-01 08:20:45 51°16.613 2°57.551 5.9 256 17.3 101190 78
2002-08-01 08:20:49 51°16.622 2°57.571 5.8 257 17.3 101190 78
2002-08-01 08:20:55 51°16.634 2°57.603 5.9 256 17.3 101190 78
2002-08-01 08:20:59 51°16.643 2°57.623 5.6 256 17.3 101190 78
2002-08-01 08:21:05 51°16.655 2°57.654 5.7 258 17.3 101190 78
2002-08-01 08:21:09 51°16.664 2°57.675 5.9 257 17.3 101190 78
2002-08-01 08:21:13 51°16.672 2°57.696 6.1 261 17.3 101190 78
2002-08-01 08:21:19 51°16.685 2°57.727 6 268 17.3 101190 78
2002-08-01 08:21:25 51°16.698 2°57.759 6.1 260 17.3 101190 78
2002-08-01 08:21:29 51°16.706 2°57.779 6.3 256 17.3 101190 78
2002-08-01 08:21:34 51°16.716 2°57.805 6.9 259 17.3 101190 78
2002-08-01 08:21:39 51°16.727 2°57.831 6.7 261 17.3 101190 78
2002-08-01 08:21:44 51°16.737 2°57.858 6.4 263 17.3 101190 78
2002-08-01 08:21:49 51°16.747 2°57.884 7.3 262 17.3 101200 78
2002-08-01 08:21:55 51°16.759 2°57.915 6.9 263 17.3 101200 78
2002-08-01 08:22:00 51°16.769 2°57.942 6.9 259 17.3 101190 78
2002-08-01 08:22:04 51°16.778 2°57.963 7.9 260 17.3 101190 78
2002-08-01 08:22:09 51°16.788 2°57.989 7.8 264 17.3 101190 78
2002-08-01 08:22:15 51°16.801 2°58.02 7 261 17.3 101190 78
2002-08-01 08:22:19 51°16.809 2°58.041 7.2 264 17.3 101190 78
2002-08-01 08:22:25 51°16.822 2°58.072 7 263 17.3 101190 78
2002-08-01 08:22:29 51°16.83 2°58.093 6.7 265 17.3 101190 78
2002-08-01 08:22:35 51°16.843 2°58.123 6.8 260 17.3 101190 78
2002-08-01 08:22:39 51°16.851 2°58.144 6.8 263 17.3 101190 78
2002-08-01 08:22:45 51°16.864 2°58.175 6.4 262 17.3 101190 78
2002-08-01 08:22:49 51°16.872 2°58.196 6.4 263 17.3 101190 78
2002-08-01 08:22:53 51°16.881 2°58.217 6 262 17.3 101190 78
2002-08-01 08:22:59 51°16.893 2°58.248 6 262 17.2 101190 78
2002-08-01 08:23:05 51°16.905 2°58.28 5.5 265 17.2 101190 78
2002-08-01 08:23:09 51°16.913 2°58.301 6.6 267 17.4 101190 78
2002-08-01 08:23:15 51°16.925 2°58.332 6.6 264 17.4 101190 78
2002-08-01 08:23:20 51°16.935 2°58.359 7.1 264 17.2 101190 78
2002-08-01 08:23:25 51°16.946 2°58.385 7 261 17.2 101190 78
2002-08-01 08:23:29 51°16.954 2°58.405 6.9 263 17.2 101190 78
2002-08-01 08:23:33 51°16.962 2°58.426 6.5 260 17.2 101190 78
2002-08-01 08:23:39 51°16.975 2°58.457 6.5 257 17.2 101190 78
2002-08-01 08:23:45 51°16.988 2°58.488 6.8 257 17.2 101190 78
2002-08-01 08:23:49 51°16.997 2°58.509 7.6 258 17.3 101180 78
2002-08-01 08:23:55 51°17.01 2°58.54 6.8 255 17.3 101180 78
2002-08-01 08:23:59 51°17.019 2°58.562 7 255 17.1 101180 78
2002-08-01 08:24:04 51°17.029 2°58.587 7.1 255 17.1 101180 78
2002-08-01 08:24:09 51°17.039 2°58.613 7.2 255 17.3 101190 78
2002-08-01 08:24:15 51°17.051 2°58.644 7.4 257 17.3 101190 78
2002-08-01 08:24:20 51°17.062 2°58.671 7.2 259 17.3 101190 78
2002-08-01 08:24:24 51°17.07 2°58.692 7.1 259 17.3 101190 78
2002-08-01 08:24:29 51°17.08 2°58.718 7.1 259 17.3 101190 78
2002-08-01 08:24:35 51°17.093 2°58.749 6.8 258 17.3 101190 78
2002-08-01 08:24:39 51°17.101 2°58.77 6.5 257 17.3 101190 78
2002-08-01 08:24:45 51°17.113 2°58.802 6.7 257 17.3 101190 78
2002-08-01 08:24:49 51°17.121 2°58.823 6.3 258 17.3 101190 78
2002-08-01 08:24:55 51°17.134 2°58.854 6.2 256 17.3 101190 78
2002-08-01 08:24:59 51°17.142 2°58.875 6.3 257 17.3 101180 78
2002-08-01 08:25:05 51°17.154 2°58.906 7.1 255 17.3 101180 78
2002-08-01 08:25:09 51°17.162 2°58.927 6.2 257 17.3 101190 78
2002-08-01 08:25:13 51°17.17 2°58.948 5.5 258 17.3 101190 78
2002-08-01 08:25:19 51°17.183 2°58.98 6 257 17.2 101190 78
2002-08-01 08:25:25 51°17.195 2°59.012 5.5 256 17.2 101190 78
2002-08-01 08:25:29 51°17.203 2°59.032 5.5 257 17.2 101180 78
2002-08-01 08:25:34 51°17.214 2°59.058 5.9 260 17.2 101180 78
2002-08-01 08:25:39 51°17.224 2°59.084 5.9 256 17.2 101190 78
2002-08-01 08:25:45 51°17.237 2°59.115 6.1 259 17.2 101190 78
2002-08-01 08:25:49 51°17.245 2°59.136 6.5 263 17.2 101180 78
2002-08-01 08:25:55 51°17.258 2°59.167 5.6 259 17.2 101180 78
2002-08-01 08:26:00 51°17.269 2°59.192 6 261 17.2 101190 78
2002-08-01 08:26:04 51°17.277 2°59.213 6.9 264 17.2 101190 78
2002-08-01 08:26:09 51°17.288 2°59.239 6.6 269 17.2 101190 78
2002-08-01 08:26:15 51°17.3 2°59.27 6.5 268 17.2 101190 78
2002-08-01 08:26:19 51°17.309 2°59.291 7.2 271 17.2 101190 78
2002-08-01 08:26:25 51°17.321 2°59.322 6.9 270 17.2 101190 78
2002-08-01 08:26:29 51°17.33 2°59.343 6.9 269 17.2 101180 78
2002-08-01 08:26:34 51°17.34 2°59.369 7 270 17.2 101180 78
2002-08-01 08:26:39 51°17.351 2°59.395 6.5 271 17.3 101180 78
2002-08-01 08:26:45 51°17.363 2°59.426 5.8 267 17.3 101180 78
2002-08-01 08:26:49 51°17.371 2°59.447 6.2 272 17.2 101180 78
2002-08-01 08:26:55 51°17.383 2°59.479 6.8 272 17.2 101180 78
2002-08-01 08:26:59 51°17.391 2°59.5 6.4 266 17.2 101180 78
2002-08-01 08:27:05 51°17.404 2°59.532 6.8 270 17.2 101180 78
2002-08-01 08:27:09 51°17.412 2°59.552 7.1 268 17.2 101180 78
2002-08-01 08:27:15 51°17.425 2°59.583 6.6 270 17.2 101180 78
2002-08-01 08:27:20 51°17.435 2°59.609 6.8 271 17.2 101180 78
2002-08-01 08:27:25 51°17.445 2°59.635 6.6 268 17.2 101180 78
2002-08-01 08:27:29 51°17.454 2°59.656 6.4 272 17.2 101180 78
2002-08-01 08:27:33 51°17.462 2°59.677 5.9 273 17.2 101180 78
2002-08-01 08:27:39 51°17.475 2°59.708 5.4 269 17.2 101180 78
2002-08-01 08:27:45 51°17.487 2°59.739 5.4 270 17.2 101180 78
2002-08-01 08:27:49 51°17.495 2°59.76 6.1 273 17.2 101180 78
2002-08-01 08:27:55 51°17.508 2°59.792 5.9 272 17.2 101180 78
2002-08-01 08:28:00 51°17.519 2°59.817 6.4 273 17.2 101180 78
2002-08-01 08:28:05 51°17.529 2°59.843 5.9 270 17.2 101180 78
2002-08-01 08:28:09 51°17.538 2°59.864 6.2 273 17.2 101190 78
2002-08-01 08:28:15 51°17.55 2°59.895 5.8 272 17.2 101190 78
2002-08-01 08:28:20 51°17.561 2°59.921 5.7 273 17.2 101190 78
2002-08-01 08:28:24 51°17.569 2°59.942 5.4 270 17.2 101190 78
2002-08-01 08:28:29 51°17.578 2°59.968 5.6 274 17.2 101180 78
2002-08-01 08:28:35 51°17.59 2°60 5.8 265 17.2 101180 78
2002-08-01 08:28:39 51°17.598 3°0.021 5.9 271 17.2 101180 78
2002-08-01 08:28:45 51°17.61 3°0.053 5.9 265 17.2 101180 78
2002-08-01 08:28:49 51°17.618 3°0.074 5.8 265 17.2 101190 78
2002-08-01 08:28:55 51°17.63 3°0.105 5.8 263 17.2 101190 78
2002-08-01 08:28:59 51°17.638 3°0.126 5.9 264 17.2 101190 78
2002-08-01 08:29:05 51°17.65 3°0.158 6.6 264 17.2 101190 78
2002-08-01 08:29:09 51°17.659 3°0.179 6.5 265 17.2 101190 78
2002-08-01 08:29:15 51°17.671 3°0.21 6.8 269 17.2 101190 78
2002-08-01 08:29:19 51°17.679 3°0.23 6.6 267 17.2 101190 78
2002-08-01 08:29:25 51°17.692 3°0.261 6.8 264 17.2 101190 78
2002-08-01 08:29:29 51°17.7 3°0.282 7 262 17.2 101190 78
2002-08-01 08:29:34 51°17.71 3°0.309 7.6 260 17.2 101190 78
2002-08-01 08:29:39 51°17.72 3°0.335 7.1 256 17.2 101190 78
2002-08-01 08:29:45 51°17.732 3°0.366 7.3 257 17.2 101190 78
2002-08-01 08:29:49 51°17.741 3°0.387 6.7 250 17.2 101190 78
2002-08-01 08:29:55 51°17.753 3°0.418 6.8 253 17.2 101190 78
2002-08-01 08:30:00 51°17.763 3°0.444 6.6 255 17.2 101190 78
2002-08-01 08:30:04 51°17.771 3°0.465 7.2 258 17.2 101190 78
2002-08-01 08:30:09 51°17.782 3°0.49 6.6 252 17.2 101180 78
2002-08-01 08:30:15 51°17.794 3°0.521 6.3 251 17.2 101180 78
2002-08-01 08:30:19 51°17.803 3°0.542 6.8 254 17.2 101190 77
2002-08-01 08:30:25 51°17.815 3°0.572 7.3 256 17.2 101190 77
2002-08-01 08:30:29 51°17.824 3°0.593 7.3 257 17.2 101190 78
2002-08-01 08:30:34 51°17.834 3°0.618 7.6 255 17.2 101190 78
2002-08-01 08:30:39 51°17.845 3°0.643 7.5 260 17.2 101190 77
2002-08-01 08:30:45 51°17.858 3°0.674 7.1 262 17.2 101190 77
2002-08-01 08:30:49 51°17.866 3°0.694 7.1 260 17.2 101190 77
2002-08-01 08:30:55 51°17.879 3°0.725 7 260 17.2 101190 77
2002-08-01 08:30:59 51°17.887 3°0.746 6.6 257 17.2 101190 78
2002-08-01 08:31:05 51°17.899 3°0.777 3.3 258 17.2 101190 78
2002-08-01 08:31:09 51°17.907 3°0.798 6.8 256 17.2 101190 77
2002-08-01 08:31:15 51°17.919 3°0.828 7 258 17.2 101190 77
2002-08-01 08:31:20 51°17.93 3°0.853 6.7 258 17.2 101190 77
2002-08-01 08:31:25 51°17.94 3°0.878 7 255 17.2 101190 77
2002-08-01 08:31:29 51°17.949 3°0.898 7.1 255 17.2 101200 77
2002-08-01 08:31:35 51°17.962 3°0.927 7.3 257 17.2 101200 77
2002-08-01 08:31:39 51°17.97 3°0.947 7.5 258 17.2 101190 76
2002-08-01 08:31:45 51°17.983 3°0.977 7.9 256 17.2 101190 76
2002-08-01 08:31:49 51°17.992 3°0.997 7.8 261 17.2 101200 76
2002-08-01 08:31:55 51°18.005 3°1.028 6.9 265 17.2 101200 76
2002-08-01 08:32:00 51°18.016 3°1.053 6.8 259 17.2 101190 76
2002-08-01 08:32:05 51°18.025 3°1.078 6.5 259 17.2 101190 76
2002-08-01 08:32:09 51°18.034 3°1.099 7 255 17.2 101190 76
2002-08-01 08:32:15 51°18.045 3°1.13 6.7 251 17.2 101190 76
2002-08-01 08:32:20 51°18.055 3°1.156 6.9 255 17.2 101190 76
2002-08-01 08:32:24 51°18.063 3°1.177 6.3 257 17.2 101190 76
2002-08-01 08:32:29 51°18.073 3°1.203 6.4 257 17.2 101200 76
2002-08-01 08:32:35 51°18.085 3°1.233 6 260 17.2 101200 76
2002-08-01 08:32:39 51°18.094 3°1.254 5.9 252 17.2 101200 76
2002-08-01 08:32:44 51°18.104 3°1.279 5.6 253 17.2 101200 76
2002-08-01 08:32:49 51°18.114 3°1.304 6.6 257 17.2 101190 76
2002-08-01 08:32:55 51°18.127 3°1.335 6.7 257 17.2 101190 76
2002-08-01 08:33:00 51°18.137 3°1.36 6.1 258 17.2 101190 75
2002-08-01 08:33:05 51°18.147 3°1.386 6.3 257 17.2 101190 75
2002-08-01 08:33:09 51°18.155 3°1.406 6.9 259 17.2 101200 75
2002-08-01 08:33:15 51°18.167 3°1.436 6.7 262 17.2 101200 75
2002-08-01 08:33:20 51°18.177 3°1.461 6.5 260 17.2 101200 75
2002-08-01 08:33:24 51°18.185 3°1.482 6.6 258 17.2 101200 75
2002-08-01 08:33:29 51°18.196 3°1.507 6.5 255 17.2 101200 75
2002-08-01 08:33:35 51°18.208 3°1.536 6.1 262 17.2 101200 75
2002-08-01 08:33:39 51°18.216 3°1.556 6.8 262 17.2 101190 75
2002-08-01 08:33:45 51°18.229 3°1.586 6.9 259 17.2 101190 75
2002-08-01 08:33:49 51°18.238 3°1.605 7 262 17.2 101200 74
2002-08-01 08:33:54 51°18.249 3°1.63 7.2 258 17.2 101200 74
2002-08-01 08:33:59 51°18.259 3°1.655 6.5 261 17.1 101200 75
2002-08-01 08:34:05 51°18.272 3°1.685 6.8 259 17.1 101200 75
2002-08-01 08:34:09 51°18.28 3°1.705 6.8 262 17.1 101200 75
2002-08-01 08:34:15 51°18.292 3°1.735 6.3 265 17.1 101200 75
2002-08-01 08:34:19 51°18.3 3°1.755 6.5 265 17.2 101200 74
2002-08-01 08:34:25 51°18.312 3°1.786 5.9 264 17.2 101200 74
2002-08-01 08:34:29 51°18.32 3°1.806 6 261 17.2 101190 74
2002-08-01 08:34:34 51°18.329 3°1.832 6 264 17.2 101190 74
2002-08-01 08:34:39 51°18.339 3°1.858 5.7 264 17.1 101190 74
2002-08-01 08:34:45 51°18.35 3°1.89 5.6 264 17.1 101190 74
2002-08-01 08:34:49 51°18.357 3°1.91 5.9 263 17.1 101200 73
2002-08-01 08:34:55 51°18.369 3°1.941 5.4 264 17.1 101200 73
2002-08-01 08:35:00 51°18.379 3°1.967 6.1 267 17.1 101190 73
2002-08-01 08:35:04 51°18.387 3°1.987 5.9 261 17.1 101190 73
2002-08-01 08:35:09 51°18.398 3°2.012 6.2 263 17.1 101190 73
2002-08-01 08:35:14 51°18.408 3°2.037 6.5 257 17.1 101190 73
2002-08-01 08:35:19 51°18.418 3°2.062 6.4 256 17.1 101200 73
2002-08-01 08:35:25 51°18.431 3°2.092 6.8 256 17.1 101200 73
2002-08-01 08:35:29 51°18.439 3°2.112 6.8 255 17.2 101200 74
2002-08-01 08:35:35 51°18.451 3°2.142 6.2 256 17.2 101200 74
2002-08-01 08:35:39 51°18.459 3°2.162 6.1 255 17.2 101190 74
2002-08-01 08:35:45 51°18.471 3°2.193 5.8 258 17.2 101190 74
2002-08-01 08:35:49 51°18.478 3°2.213 6.1 260 17.2 101190 74
2002-08-01 08:35:55 51°18.49 3°2.244 5.8 258 17.2 101190 74
2002-08-01 08:35:59 51°18.498 3°2.265 6.3 260 17.2 101200 74
2002-08-01 08:36:05 51°18.51 3°2.295 6.1 260 17.2 101200 74
2002-08-01 08:36:09 51°18.517 3°2.315 5.5 261 17.2 101200 74
2002-08-01 08:36:15 51°18.529 3°2.346 5.7 259 17.2 101200 74
2002-08-01 08:36:19 51°18.537 3°2.367 6.6 259 17.3 101190 75
2002-08-01 08:36:25 51°18.549 3°2.397 6.8 262 17.3 101190 75
2002-08-01 08:36:29 51°18.557 3°2.417 6.6 260 17.3 101200 75
2002-08-01 08:36:35 51°18.57 3°2.447 6.7 257 17.3 101200 75
2002-08-01 08:36:39 51°18.578 3°2.467 7.3 258 17.3 101190 75
2002-08-01 08:36:45 51°18.591 3°2.496 7.6 260 17.3 101190 75
2002-08-01 08:36:49 51°18.599 3°2.516 7.4 262 17.3 101190 75
2002-08-01 08:36:55 51°18.612 3°2.546 6.7 259 17.3 101190 75
2002-08-01 08:37:00 51°18.622 3°2.57 6.8 260 17.3 101190 75
2002-08-01 08:37:05 51°18.632 3°2.595 7.1 262 17.3 101190 75
2002-08-01 08:37:09 51°18.64 3°2.615 6.9 261 17.3 101190 75
2002-08-01 08:37:15 51°18.651 3°2.646 7.5 259 17.3 101190 75
2002-08-01 08:37:20 51°18.661 3°2.671 7.2 260 17.3 101190 75
2002-08-01 08:37:24 51°18.668 3°2.692 6.5 262 17.3 101190 75
2002-08-01 08:37:29 51°18.677 3°2.718 6.6 262 17.3 101190 75
2002-08-01 08:37:34 51°18.686 3°2.744 6.3 261 17.3 101190 75
2002-08-01 08:37:39 51°18.696 3°2.769 6.4 263 17.3 101190 75
2002-08-01 08:37:45 51°18.707 3°2.799 6.1 259 17.3 101190 75
2002-08-01 08:37:49 51°18.715 3°2.819 3.3 263 17.3 101190 75
2002-08-01 08:37:55 51°18.728 3°2.848 6.1 262 17.3 101190 75
2002-08-01 08:37:59 51°18.737 3°2.867 6.2 262 17.3 101190 75
2002-08-01 08:38:05 51°18.75 3°2.896 6.4 264 17.3 101190 75
2002-08-01 08:38:09 51°18.759 3°2.915 6.2 263 17.3 101190 75
2002-08-01 08:38:15 51°18.772 3°2.943 6.1 266 17.3 101190 75
2002-08-01 08:38:19 51°18.782 3°2.962 6.6 266 17.3 101190 75
2002-08-01 08:38:25 51°18.795 3°2.989 7.4 261 17.3 101190 75
2002-08-01 08:38:29 51°18.804 3°3.008 7.2 266 17.3 101190 75
2002-08-01 08:38:34 51°18.816 3°3.031 7.1 269 17.3 101190 75
2002-08-01 08:38:39 51°18.827 3°3.055 6.9 268 17.3 101190 75
2002-08-01 08:38:45 51°18.84 3°3.083 6.7 266 17.3 101190 75
2002-08-01 08:38:49 51°18.849 3°3.102 6.8 265 17.3 101190 75
2002-08-01 08:38:55 51°18.862 3°3.131 6.3 262 17.3 101190 75
2002-08-01 08:39:00 51°18.873 3°3.155 6.2 263 17.3 101190 75
2002-08-01 08:39:04 51°18.882 3°3.174 7.3 261 17.3 101190 75
2002-08-01 08:39:09 51°18.893 3°3.198 7.4 260 17.3 101190 75
2002-08-01 08:39:14 51°18.904 3°3.222 7.5 262 17.3 101190 75
2002-08-01 08:39:19 51°18.915 3°3.245 7.1 260 17.2 101190 74
2002-08-01 08:39:25 51°18.929 3°3.273 7.1 261 17.2 101190 74
2002-08-01 08:39:29 51°18.939 3°3.291 7.1 258 17.2 101190 75
2002-08-01 08:39:35 51°18.953 3°3.318 7 261 17.2 101190 75
2002-08-01 08:39:39 51°18.962 3°3.337 6.6 261 17.2 101190 74
2002-08-01 08:39:45 51°18.976 3°3.364 6.3 261 17.2 101190 74
2002-08-01 08:39:49 51°18.986 3°3.383 6.4 266 17.2 101190 74
2002-08-01 08:39:55 51°19 3°3.41 6.8 263 17.2 101190 74
2002-08-01 08:40:00 51°19.011 3°3.433 6.8 262 17.2 101190 74
2002-08-01 08:40:04 51°19.02 3°3.452 7.7 267 17.2 101190 74
2002-08-01 08:40:09 51°19.031 3°3.476 7.4 267 17.3 101190 74
2002-08-01 08:40:15 51°19.043 3°3.506 6.8 267 17.3 101190 74
2002-08-01 08:40:19 51°19.051 3°3.525 7.3 263 17.3 101190 74
2002-08-01 08:40:24 51°19.061 3°3.551 7.2 266 17.3 101190 74
2002-08-01 08:40:29 51°19.071 3°3.576 6.7 267 17.3 101190 74
2002-08-01 08:40:35 51°19.082 3°3.606 6.5 269 17.3 101190 74
2002-08-01 08:40:40 51°19.091 3°3.631 6 263 17.3 101200 74
2002-08-01 08:40:45 51°19.101 3°3.656 6.2 266 17.3 101200 74
2002-08-01 08:40:49 51°19.109 3°3.675 6.4 261 17.3 101200 74
2002-08-01 08:40:54 51°19.119 3°3.7 6.4 259 17.3 101200 74
2002-08-01 08:40:59 51°19.129 3°3.724 6.9 263 17.3 101200 74
2002-08-01 08:41:05 51°19.143 3°3.752 6.2 264 17.3 101200 74
2002-08-01 08:41:09 51°19.152 3°3.771 5.8 263 17.3 101200 74
2002-08-01 08:41:15 51°19.165 3°3.799 5.5 264 17.3 101200 74
2002-08-01 08:41:20 51°19.177 3°3.822 5.5 263 17.3 101190 74
2002-08-01 08:41:25 51°19.188 3°3.845 5.1 264 17.3 101190 74
2002-08-01 08:41:29 51°19.197 3°3.864 5.6 266 17.3 101200 74
2002-08-01 08:41:35 51°19.212 3°3.891 5.6 261 17.3 101200 74
2002-08-01 08:41:40 51°19.222 3°3.915 6.2 262 17.2 101200 74
2002-08-01 08:41:45 51°19.233 3°3.939 6.7 264 17.2 101200 74
2002-08-01 08:41:49 51°19.242 3°3.959 6.8 267 17.2 101200 73
2002-08-01 08:41:55 51°19.254 3°3.988 6.2 261 17.2 101200 73
2002-08-01 08:41:59 51°19.262 3°4.008 6.1 272 17.3 101200 74
2002-08-01 08:42:05 51°19.274 3°4.038 6 276 17.3 101200 74
2002-08-01 08:42:09 51°19.282 3°4.059 5.2 260 17.3 101200 74
2002-08-01 08:42:15 51°19.293 3°4.089 6.9 257 17.3 101200 74
2002-08-01 08:42:20 51°19.303 3°4.114 6.9 259 17.3 101200 75
2002-08-01 08:42:25 51°19.313 3°4.138 7.1 259 17.3 101200 75
2002-08-01 08:42:29 51°19.322 3°4.157 6.6 260 17.3 101200 75
2002-08-01 08:42:35 51°19.335 3°4.185 7.2 258 17.3 101200 75
2002-08-01 08:42:39 51°19.344 3°4.204 7.1 259 17.4 101200 75
2002-08-01 08:42:45 51°19.358 3°4.231 7.1 257 17.4 101200 75
2002-08-01 08:42:49 51°19.367 3°4.249 7.1 260 17.4 101200 75
2002-08-01 08:42:55 51°19.382 3°4.275 7.2 261 17.4 101200 75
2002-08-01 08:42:59 51°19.391 3°4.293 7.9 262 17.4 101210 75
2002-08-01 08:43:05 51°19.406 3°4.319 7.2 261 17.4 101210 75
2002-08-01 08:43:09 51°19.415 3°4.336 7.2 264 17.4 101200 75
2002-08-01 08:43:15 51°19.43 3°4.362 7 261 17.4 101200 75
2002-08-01 08:43:20 51°19.442 3°4.384 6.9 266 17.4 101200 75
2002-08-01 08:43:25 51°19.454 3°4.407 6.1 265 17.4 101200 75
2002-08-01 08:43:29 51°19.463 3°4.425 5.8 265 17.4 101210 75
2002-08-01 08:43:35 51°19.476 3°4.452 6 260 17.4 101210 75
2002-08-01 08:43:40 51°19.488 3°4.476 5.8 267 17.4 101210 75
2002-08-01 08:43:45 51°19.498 3°4.499 5.5 265 17.4 101210 75
2002-08-01 08:43:49 51°19.507 3°4.518 5.4 266 17.4 101210 75
2002-08-01 08:43:54 51°19.518 3°4.542 5.2 265 17.4 101210 75
2002-08-01 08:43:59 51°19.529 3°4.565 5.1 265 17.4 101210 75
2002-08-01 08:44:05 51°19.542 3°4.594 5.6 257 17.4 101210 75
2002-08-01 08:44:09 51°19.551 3°4.612 5.8 262 17.4 101210 76
2002-08-01 08:44:15 51°19.564 3°4.64 5.8 265 17.4 101210 76
2002-08-01 08:44:19 51°19.574 3°4.658 5.4 260 17.4 101210 76
2002-08-01 08:44:24 51°19.585 3°4.681 5.3 264 17.4 101210 76
2002-08-01 08:44:29 51°19.597 3°4.702 5.5 255 17.4 101210 76
2002-08-01 08:44:34 51°19.609 3°4.725 6.2 261 17.4 101210 76
2002-08-01 08:44:39 51°19.621 3°4.746 5.6 261 17.4 101210 76
2002-08-01 08:44:45 51°19.636 3°4.773 5.6 258 17.4 101210 76
2002-08-01 08:44:49 51°19.645 3°4.79 5.8 260 17.4 101210 76
2002-08-01 08:44:54 51°19.657 3°4.812 6.9 262 17.4 101210 76
2002-08-01 08:44:59 51°19.669 3°4.835 6.2 262 17.4 101210 76
2002-08-01 08:45:05 51°19.683 3°4.862 6 261 17.4 101210 76
2002-08-01 08:45:09 51°19.692 3°4.88 5.9 257 17.4 101210 76
2002-08-01 08:45:15 51°19.706 3°4.907 5.9 259 17.4 101210 76
2002-08-01 08:45:19 51°19.715 3°4.925 6 261 17.4 101210 76
2002-08-01 08:45:25 51°19.729 3°4.953 6.1 256 17.4 101210 76
2002-08-01 08:45:29 51°19.738 3°4.971 6.2 257 17.4 101210 76
2002-08-01 08:45:34 51°19.749 3°4.994 6.3 259 17.4 101210 76
2002-08-01 08:45:39 51°19.761 3°5.016 6.1 256 17.4 101210 76
2002-08-01 08:45:45 51°19.774 3°5.043 5.5 261 17.4 101210 76
2002-08-01 08:45:49 51°19.784 3°5.061 5.7 253 17.4 101210 76
2002-08-01 08:45:55 51°19.798 3°5.088 6 257 17.4 101210 76
2002-08-01 08:46:00 51°19.809 3°5.111 5.7 257 17.4 101210 77
2002-08-01 08:46:05 51°19.821 3°5.133 5.9 263 17.4 101210 77
2002-08-01 08:46:09 51°19.83 3°5.151 4.9 260 17.4 101210 77
2002-08-01 08:46:15 51°19.845 3°5.176 4.9 261 17.4 101210 77
2002-08-01 08:46:20 51°19.858 3°5.198 4.6 254 17.4 101210 77
2002-08-01 08:46:25 51°19.87 3°5.219 4.8 255 17.4 101210 77
2002-08-01 08:46:29 51°19.88 3°5.237 5.3 253 17.4 101210 77
2002-08-01 08:46:35 51°19.894 3°5.264 4.8 252 17.4 101210 77
2002-08-01 08:46:40 51°19.905 3°5.286 4.4 254 17.4 101210 77
2002-08-01 08:46:45 51°19.916 3°5.309 4.8 246 17.4 101210 77
2002-08-01 08:46:49 51°19.925 3°5.328 5 255 17.4 101210 77
2002-08-01 08:46:55 51°19.938 3°5.355 5.2 255 17.4 101210 77
2002-08-01 08:47:00 51°19.949 3°5.379 4.9 256 17.4 101220 77
2002-08-01 08:47:05 51°19.959 3°5.402 5 255 17.4 101220 77
2002-08-01 08:47:09 51°19.968 3°5.421 4.9 254 17.4 101220 77
2002-08-01 08:47:15 51°19.981 3°5.449 5.6 254 17.4 101220 77
2002-08-01 08:47:20 51°19.991 3°5.473 5.7 251 17.4 101220 77
2002-08-01 08:47:24 51°20 3°5.491 6.1 257 17.4 101220 77
2002-08-01 08:47:29 51°20.012 3°5.514 6.4 257 17.4 101220 77
2002-08-01 08:47:35 51°20.025 3°5.541 7.1 257 17.4 101220 77
2002-08-01 08:47:39 51°20.034 3°5.558 6.6 259 17.4 101210 77
2002-08-01 08:47:45 51°20.049 3°5.583 6.6 256 17.4 101210 77
2002-08-01 08:47:49 51°20.059 3°5.6 6.7 259 17.4 101210 78
2002-08-01 08:47:54 51°20.072 3°5.621 6.7 258 17.4 101210 78
2002-08-01 08:47:59 51°20.084 3°5.642 6.6 258 17.4 101210 78
2002-08-01 08:48:05 51°20.099 3°5.668 6.4 256 17.4 101210 78
2002-08-01 08:48:09 51°20.109 3°5.685 6.2 251 17.4 101210 78
2002-08-01 08:48:15 51°20.123 3°5.711 5.8 255 17.4 101210 78
2002-08-01 08:48:20 51°20.135 3°5.733 6.3 253 17.4 101210 78
2002-08-01 08:48:25 51°20.146 3°5.756 5.3 251 17.4 101210 78
2002-08-01 08:48:29 51°20.155 3°5.774 5.4 251 17.4 101220 78
2002-08-01 08:48:34 51°20.166 3°5.797 5.7 256 17.4 101220 78
2002-08-01 08:48:39 51°20.176 3°5.82 5 254 17.4 101220 78
2002-08-01 08:48:45 51°20.189 3°5.849 5.3 245 17.4 101220 78
2002-08-01 08:48:49 51°20.196 3°5.868 5.5 251 17.4 101220 78
2002-08-01 08:48:55 51°20.209 3°5.896 6.1 255 17.4 101220 78
2002-08-01 08:48:59 51°20.217 3°5.915 5.3 252 17.4 101220 78
2002-08-01 08:49:05 51°20.23 3°5.943 5.7 256 17.4 101220 78
2002-08-01 08:49:09 51°20.239 3°5.961 5.7 257 17.4 101220 78
2002-08-01 08:49:15 51°20.253 3°5.987 5.7 259 17.4 101220 78
2002-08-01 08:49:20 51°20.265 3°6.009 5.4 261 17.4 101220 78
2002-08-01 08:49:25 51°20.277 3°6.03 5.6 263 17.4 101220 78
2002-08-01 08:49:29 51°20.287 3°6.047 5.2 262 17.4 101220 78
2002-08-01 08:49:34 51°20.3 3°6.067 5.5 265 17.4 101220 78
2002-08-01 08:49:39 51°20.313 3°6.087 5.7 263 17.4 101220 78
2002-08-01 08:49:44 51°20.325 3°6.108 6.1 261 17.4 101220 78
2002-08-01 08:49:49 51°20.338 3°6.128 6.2 256 17.3 101220 78
2002-08-01 08:49:55 51°20.352 3°6.154 6.1 257 17.3 101220 78
2002-08-01 08:50:00 51°20.363 3°6.176 6 259 17.3 101220 78
2002-08-01 08:50:05 51°20.375 3°6.199 5.8 260 17.3 101220 78
2002-08-01 08:50:09 51°20.383 3°6.218 5.4 257 17.3 101220 78
2002-08-01 08:50:14 51°20.393 3°6.241 5.4 253 17.3 101220 78
2002-08-01 08:50:19 51°20.403 3°6.266 5.4 252 17.3 101220 78
2002-08-01 08:50:25 51°20.415 3°6.295 5.5 251 17.3 101220 78
2002-08-01 08:50:29 51°20.423 3°6.314 5.6 256 17.3 101220 77
2002-08-01 08:50:35 51°20.434 3°6.343 5.6 250 17.3 101220 77
2002-08-01 08:50:40 51°20.444 3°6.366 6.2 257 17.3 101220 77
2002-08-01 08:50:45 51°20.455 3°6.389 6.5 258 17.3 101220 77
2002-08-01 08:50:49 51°20.464 3°6.406 6.3 258 17.3 101220 77
2002-08-01 08:50:55 51°20.478 3°6.432 6.6 255 17.3 101220 77
2002-08-01 08:50:59 51°20.488 3°6.449 6.1 255 17.3 101220 77
2002-08-01 08:51:05 51°20.504 3°6.473 7.1 256 17.3 101220 77
2002-08-01 08:51:09 51°20.515 3°6.488 7 257 17.3 101220 78
2002-08-01 08:51:15 51°20.531 3°6.51 7 257 17.3 101220 78
2002-08-01 08:51:20 51°20.545 3°6.528 7.3 260 17.3 101220 78
2002-08-01 08:51:24 51°20.556 3°6.542 6.9 262 17.3 101220 78
2002-08-01 08:51:29 51°20.57 3°6.559 6.7 260 17.3 101220 78
2002-08-01 08:51:35 51°20.587 3°6.581 7.2 260 17.3 101220 78
2002-08-01 08:51:39 51°20.598 3°6.596 7.2 262 17.3 101220 78
2002-08-01 08:51:45 51°20.614 3°6.618 6.2 260 17.3 101220 78
2002-08-01 08:51:49 51°20.625 3°6.633 5.9 261 17.3 101210 78
2002-08-01 08:51:55 51°20.64 3°6.657 6 261 17.3 101210 78
2002-08-01 08:51:59 51°20.65 3°6.674 5.7 259 17.3 101210 78
2002-08-01 08:52:05 51°20.664 3°6.699 6 261 17.3 101210 78
2002-08-01 08:52:09 51°20.674 3°6.717 5.8 258 17.3 101220 78
2002-08-01 08:52:15 51°20.688 3°6.743 5.9 261 17.3 101220 78
2002-08-01 08:52:20 51°20.699 3°6.764 6.1 255 17.3 101220 78
2002-08-01 08:52:25 51°20.711 3°6.785 5.9 257 17.3 101220 78
2002-08-01 08:52:29 51°20.721 3°6.801 5.9 257 17.4 101220 78
2002-08-01 08:52:35 51°20.737 3°6.823 6 258 17.4 101220 78
2002-08-01 08:52:39 51°20.749 3°6.837 6.5 258 17.3 101220 78
2002-08-01 08:52:44 51°20.763 3°6.853 7.5 266 17.3 101220 78
2002-08-01 08:52:49 51°20.778 3°6.869 6.8 268 17.3 101220 78
2002-08-01 08:52:55 51°20.796 3°6.887 7.3 269 17.3 101220 78
2002-08-01 08:53:00 51°20.81 3°6.903 7.9 273 17.3 101220 77
2002-08-01 08:53:04 51°20.822 3°6.917 8 261 17.3 101220 77
2002-08-01 08:53:09 51°20.837 3°6.933 7.5 269 17.3 101220 78
2002-08-01 08:53:15 51°20.854 3°6.953 7.1 268 17.3 101220 78
2002-08-01 08:53:19 51°20.866 3°6.965 7 265 17.2 101210 77
2002-08-01 08:53:25 51°20.884 3°6.984 8.8 263 17.2 101210 77
2002-08-01 08:53:29 51°20.896 3°6.996 8.4 266 17.3 101220 78
2002-08-01 08:53:35 51°20.915 3°7.014 7.4 263 17.3 101220 78
2002-08-01 08:53:39 51°20.927 3°7.026 7.6 257 17.3 101210 78
2002-08-01 08:53:45 51°20.946 3°7.043 8 258 17.3 101210 78
2002-08-01 08:53:49 51°20.959 3°7.055 8.3 262 17.3 101210 78
2002-08-01 08:53:55 51°20.977 3°7.073 7.5 257 17.3 101210 78
2002-08-01 08:54:00 51°20.993 3°7.089 8.4 262 17.3 101210 78
2002-08-01 08:54:04 51°21.004 3°7.102 7.5 261 17.3 101210 78
2002-08-01 08:54:09 51°21.019 3°7.119 7.4 262 17.3 101210 78
2002-08-01 08:54:14 51°21.033 3°7.138 7.5 266 17.3 101210 78
2002-08-01 08:54:19 51°21.047 3°7.157 6.9 261 17.3 101210 78
2002-08-01 08:54:25 51°21.063 3°7.181 6.6 263 17.3 101210 78
2002-08-01 08:54:29 51°21.074 3°7.197 6.1 260 17.3 101210 78
2002-08-01 08:54:35 51°21.089 3°7.221 6.5 264 17.3 101210 78
2002-08-01 08:54:39 51°21.1 3°7.238 6.5 263 17.3 101210 78
2002-08-01 08:54:45 51°21.115 3°7.262 6.2 263 17.3 101210 78
2002-08-01 08:54:49 51°21.126 3°7.278 6.5 262 17.3 101220 77
2002-08-01 08:54:53 51°21.137 3°7.293 6.7 264 17.3 101220 77
2002-08-01 08:54:59 51°21.154 3°7.315 6.8 266 17.3 101220 77
2002-08-01 08:55:05 51°21.172 3°7.337 6.5 267 17.3 101220 77
2002-08-01 08:55:09 51°21.183 3°7.352 6.7 263 17.3 101210 77
2002-08-01 08:55:15 51°21.201 3°7.374 7 265 17.3 101210 77
2002-08-01 08:55:20 51°21.216 3°7.392 6.9 262 17.3 101210 77
2002-08-01 08:55:25 51°21.23 3°7.411 6.8 259 17.3 101210 77
2002-08-01 08:55:29 51°21.241 3°7.426 6.8 259 17.3 101220 78
2002-08-01 08:55:35 51°21.258 3°7.449 6.4 256 17.3 101220 78
2002-08-01 08:55:39 51°21.27 3°7.464 6.1 256 17.3 101220 78
2002-08-01 08:55:45 51°21.287 3°7.487 5.9 251 17.3 101220 78
2002-08-01 08:55:49 51°21.298 3°7.503 6.6 254 17.3 101210 77
2002-08-01 08:55:55 51°21.315 3°7.527 6.2 255 17.3 101210 77
2002-08-01 08:55:59 51°21.327 3°7.543 6.9 254 17.3 101210 78
2002-08-01 08:56:05 51°21.344 3°7.566 7.1 259 17.3 101210 78
2002-08-01 08:56:09 51°21.356 3°7.582 8 258 17.3 101220 77
2002-08-01 08:56:15 51°21.374 3°7.604 7.7 257 17.3 101220 77
2002-08-01 08:56:20 51°21.388 3°7.624 7.8 258 17.3 101220 77
2002-08-01 08:56:24 51°21.4 3°7.638 6.9 258 17.3 101220 77
2002-08-01 08:56:29 51°21.414 3°7.658 7.3 261 17.3 101210 78
2002-08-01 08:56:35 51°21.432 3°7.681 7.1 256 17.3 101210 78
2002-08-01 08:56:39 51°21.444 3°7.696 7.4 257 17.3 101210 78
2002-08-01 08:56:45 51°21.461 3°7.719 7.7 259 17.3 101210 78
2002-08-01 08:56:49 51°21.473 3°7.734 7.6 262 17.3 101210 77
2002-08-01 08:56:55 51°21.49 3°7.758 7.6 259 17.3 101210 77
2002-08-01 08:57:00 51°21.505 3°7.777 8.2 256 17.3 101210 77
2002-08-01 08:57:05 51°21.52 3°7.796 7.2 258 17.3 101210 77
2002-08-01 08:57:09 51°21.531 3°7.812 6.9 256 17.3 101210 78
2002-08-01 08:57:15 51°21.548 3°7.835 7.7 255 17.3 101210 78
2002-08-01 08:57:20 51°21.562 3°7.855 7.9 258 17.3 101210 77
2002-08-01 08:57:25 51°21.577 3°7.875 7.4 258 17.3 101210 77
2002-08-01 08:57:29 51°21.588 3°7.891 6.7 262 17.3 101200 77
2002-08-01 08:57:35 51°21.605 3°7.915 7.9 263 17.3 101200 77
2002-08-01 08:57:40 51°21.62 3°7.935 7.6 267 17.3 101210 77
2002-08-01 08:57:45 51°21.634 3°7.955 7.5 265 17.3 101210 77
2002-08-01 08:57:49 51°21.645 3°7.971 7.7 267 17.2 101210 77
2002-08-01 08:57:55 51°21.662 3°7.995 7 267 17.2 101210 77
2002-08-01 08:58:00 51°21.676 3°8.015 7.6 268 17.3 101210 77
2002-08-01 08:58:05 51°21.691 3°8.034 7.1 267 17.3 101210 77
2002-08-01 08:58:09 51°21.702 3°8.05 7 268 17.3 101200 77
2002-08-01 08:58:15 51°21.72 3°8.074 8.6 265 17.3 101200 77
2002-08-01 08:58:20 51°21.734 3°8.093 8.3 264 17.3 101200 77
2002-08-01 08:58:24 51°21.746 3°8.109 8.8 268 17.3 101200 77
2002-08-01 08:58:29 51°21.76 3°8.128 8.1 264 17.3 101200 77
2002-08-01 08:58:35 51°21.777 3°8.152 8.3 265 17.3 101200 77
2002-08-01 08:58:39 51°21.789 3°8.168 8 264 17.3 101200 77
2002-08-01 08:58:45 51°21.806 3°8.192 8.1 265 17.3 101200 77
2002-08-01 08:58:49 51°21.817 3°8.208 7.9 267 17.2 101200 77
2002-08-01 08:58:55 51°21.834 3°8.232 7.5 264 17.2 101200 77
2002-08-01 08:58:59 51°21.846 3°8.247 8.2 265 17.2 101200 77
2002-08-01 08:59:05 51°21.863 3°8.271 7.3 263 17.2 101200 77
2002-08-01 08:59:09 51°21.875 3°8.287 7.6 262 17.2 101200 76
2002-08-01 08:59:15 51°21.892 3°8.311 8 263 17.2 101200 76
2002-08-01 08:59:20 51°21.906 3°8.33 8.6 261 17.2 101200 76
2002-08-01 08:59:25 51°21.92 3°8.35 8.7 261 17.2 101200 76
2002-08-01 08:59:29 51°21.932 3°8.366 8.3 260 17.2 101200 76
2002-08-01 08:59:35 51°21.949 3°8.39 8.8 257 17.2 101200 76
2002-08-01 08:59:40 51°21.963 3°8.41 8.4 257 17.2 101200 76
2002-08-01 08:59:45 51°21.978 3°8.43 8.8 258 17.2 101200 76
2002-08-01 08:59:49 51°21.989 3°8.446 7.9 253 17.2 101200 76
2002-08-01 08:59:55 51°22.006 3°8.469 8.2 257 17.2 101200 76
2002-08-01 09:00:00 51°22.02 3°8.49 7.6 254 17.2 101200 76
2002-08-01 09:00:05 51°22.035 3°8.509 7.9 255 17.2 101200 76
2002-08-01 09:00:09 51°22.046 3°8.525 7.9 252 17.2 101200 76
2002-08-01 09:00:15 51°22.063 3°8.549 9.1 256 17.2 101200 76
2002-08-01 09:00:19 51°22.075 3°8.565 9 258 17.2 101200 76
2002-08-01 09:00:25 51°22.092 3°8.589 8.9 259 17.2 101200 76
2002-08-01 09:00:29 51°22.103 3°8.605 9 260 17.2 101200 76
2002-08-01 09:00:35 51°22.121 3°8.629 9.1 264 17.2 101200 76
2002-08-01 09:00:39 51°22.132 3°8.645 8.7 260 17.2 101200 76
2002-08-01 09:00:45 51°22.149 3°8.668 8.6 266 17.2 101200 76
2002-08-01 09:00:49 51°22.161 3°8.684 8.2 263 17.2 101200 76
2002-08-01 09:00:55 51°22.178 3°8.707 8.4 264 17.2 101200 76
2002-08-01 09:01:00 51°22.193 3°8.727 8.8 262 17.2 101200 76
2002-08-01 09:01:05 51°22.207 3°8.747 8.5 264 17.2 101200 76
2002-08-01 09:01:09 51°22.218 3°8.763 8.2 261 17.2 101200 76
2002-08-01 09:01:14 51°22.233 3°8.783 8.2 260 17.2 101200 76
2002-08-01 09:01:19 51°22.247 3°8.803 7.8 259 17.2 101200 76
2002-08-01 09:01:25 51°22.265 3°8.826 8.1 259 17.2 101200 76
2002-08-01 09:01:29 51°22.276 3°8.842 8.4 262 17.2 101200 76
2002-08-01 09:01:35 51°22.293 3°8.866 7.5 265 17.2 101200 76
2002-08-01 09:01:40 51°22.308 3°8.886 7.2 265 17.2 101200 76
2002-08-01 09:01:45 51°22.322 3°8.906 6.6 263 17.2 101200 76
2002-08-01 09:01:49 51°22.334 3°8.922 7.4 261 17.2 101200 76
2002-08-01 09:01:55 51°22.352 3°8.946 7.8 261 17.2 101200 76
2002-08-01 09:01:59 51°22.363 3°8.962 8.1 261 17.2 101210 76
2002-08-01 09:02:05 51°22.381 3°8.985 8.1 260 17.2 101210 76
2002-08-01 09:02:09 51°22.393 3°9.001 8.5 262 17.3 101210 76
2002-08-01 09:02:13 51°22.404 3°9.017 8.2 257 17.3 101210 76
2002-08-01 09:02:20 51°22.425 3°9.044 8.4 262 17.2 101210 76
2002-08-01 09:02:25 51°22.44 3°9.064 7.8 260 17.2 101210 76
2002-08-01 09:02:29 51°22.451 3°9.079 6.8 258 17.2 101210 76
2002-08-01 09:02:35 51°22.467 3°9.1 6.4 262 17.2 101210 76
2002-08-01 09:02:39 51°22.476 3°9.114 6 268 17.2 101200 76
2002-08-01 09:02:45 51°22.489 3°9.134 6 273 17.2 101200 76
2002-08-01 09:02:49 51°22.497 3°9.147 5.1 277 17.2 101200 76
2002-08-01 09:02:55 51°22.507 3°9.166 6 281 17.2 101200 76
2002-08-01 09:03:00 51°22.515 3°9.182 5.3 278 17.2 101220 76
2002-08-01 09:03:05 51°22.523 3°9.196 5.3 281 17.2 101220 76
2002-08-01 09:03:09 51°22.529 3°9.208 5.1 281 17.2 101210 76
2002-08-01 09:03:15 51°22.538 3°9.224 4.9 290 17.2 101210 76
2002-08-01 09:03:20 51°22.545 3°9.237 4.7 283 17.2 101210 76
2002-08-01 09:03:25 51°22.552 3°9.25 4.4 284 17.2 101210 76
2002-08-01 09:03:29 51°22.558 3°9.26 4.2 283 17.2 101210 76
2002-08-01 09:03:35 51°22.566 3°9.275 4.1 287 17.2 101210 76
2002-08-01 09:03:40 51°22.572 3°9.287 4.1 287 17.2 101210 75
2002-08-01 09:03:45 51°22.579 3°9.297 4.5 291 17.2 101210 75
2002-08-01 09:03:49 51°22.584 3°9.307 4.1 289 17.2 101210 75
2002-08-01 09:03:54 51°22.59 3°9.317 4.3 292 17.2 101210 75
2002-08-01 09:04:00 51°22.597 3°9.331 5 296 17.2 101210 75
2002-08-01 09:04:04 51°22.602 3°9.339 4.7 301 17.2 101210 75
2002-08-01 09:04:09 51°22.607 3°9.349 4.3 303 17.2 101210 75
2002-08-01 09:04:15 51°22.613 3°9.36 3.6 301 17.2 101210 75
2002-08-01 09:04:20 51°22.618 3°9.37 3.4 303 17.2 101210 75
2002-08-01 09:04:25 51°22.623 3°9.379 2 319 17.2 101210 75
2002-08-01 09:04:29 51°22.626 3°9.386 2.3 327 17.2 101220 75
2002-08-01 09:04:35 51°22.632 3°9.396 1 331 17.2 101220 75
2002-08-01 09:04:39 51°22.635 3°9.403 1.3 320 17.2 101220 75
2002-08-01 09:04:45 51°22.64 3°9.413 3.4 308 17.2 101220 75
2002-08-01 09:04:49 51°22.644 3°9.419 2.8 302 17.2 101220 75
2002-08-01 09:04:54 51°22.648 3°9.426 1.8 322 17.2 101220 75
2002-08-01 09:04:59 51°22.652 3°9.433 2.2 312 17.2 101220 75
2002-08-01 09:05:05 51°22.656 3°9.441 1.2 323 17.2 101220 75
2002-08-01 09:05:09 51°22.66 3°9.446 1.5 322 17.2 101220 75
2002-08-01 09:05:14 51°22.664 3°9.451 1.8 314 17.2 101220 75
2002-08-01 09:05:19 51°22.668 3°9.457 1.5 318 17.2 101220 75
2002-08-01 09:05:25 51°22.672 3°9.463 1.3 318 17.2 101220 75
2002-08-01 09:05:29 51°22.675 3°9.467 1.5 305 17.2 101220 75
2002-08-01 09:05:35 51°22.68 3°9.472 2.5 303 17.2 101220 75
2002-08-01 09:05:40 51°22.683 3°9.475 2.7 309 17.2 101220 75
2002-08-01 09:05:45 51°22.687 3°9.478 1.6 336 17.2 101220 75
2002-08-01 09:05:49 51°22.689 3°9.48 1.5 329 17.2 101220 75
2002-08-01 09:05:55 51°22.691 3°9.481 1.2 303 17.2 101220 75
2002-08-01 09:05:59 51°22.692 3°9.481 0.8 320 17.2 101220 75
2002-08-01 09:06:05 51°22.693 3°9.481 1.2 316 17.2 101220 75
2002-08-01 09:06:09 51°22.694 3°9.48 0.8 333 17.2 101210 75
2002-08-01 09:06:15 51°22.694 3°9.48 0.7 342 17.2 101210 75
2002-08-01 09:06:20 51°22.694 3°9.479 0.8 346 17.2 101220 75
2002-08-01 09:06:25 51°22.694 3°9.478 0.8 329 17.2 101220 75
2002-08-01 09:06:29 51°22.694 3°9.478 1.3 327 17.2 101220 74
2002-08-01 09:06:35 51°22.695 3°9.477 1.1 343 17.2 101220 74
2002-08-01 09:06:39 51°22.695 3°9.477 0.6 339 17.2 101220 74
2002-08-01 09:06:44 51°22.695 3°9.476 0.9 336 17.2 101220 74
2002-08-01 09:06:49 51°22.695 3°9.475 0.6 327 17.2 101220 74
2002-08-01 09:06:54 51°22.695 3°9.474 0.6 334 17.2 101220 74
2002-08-01 09:06:59 51°22.696 3°9.474 0.7 322 17.2 101220 74
2002-08-01 09:07:04 51°22.696 3°9.473 0.3 343 17.2 101220 74
2002-08-01 09:07:09 51°22.696 3°9.472 1.2 344 17.2 101220 74
2002-08-01 09:07:14 51°22.696 3°9.471 0.7 328 17.2 101220 74
2002-08-01 09:07:19 51°22.697 3°9.47 0.4 328 17.2 101220 74
2002-08-01 09:07:24 51°22.697 3°9.469 1 4 17.2 101220 74
2002-08-01 09:07:29 51°22.697 3°9.469 1.3 316 17.2 101220 74
2002-08-01 09:07:34 51°22.697 3°9.468 0.7 318 17.2 101220 74
2002-08-01 09:07:39 51°22.698 3°9.467 0.8 318 17.2 101220 74
2002-08-01 09:07:44 51°22.698 3°9.466 0.9 330 17.2 101220 74
2002-08-01 09:07:49 51°22.698 3°9.466 1.8 302 17.2 101220 74
2002-08-01 09:07:54 51°22.698 3°9.465 1.9 325 17.2 101220 74
2002-08-01 09:07:59 51°22.699 3°9.464 1.7 300 17.2 101220 74
2002-08-01 09:08:04 51°22.699 3°9.463 1.5 331 17.2 101220 74
2002-08-01 09:08:09 51°22.699 3°9.462 1.4 306 17.2 101220 74
2002-08-01 09:08:14 51°22.699 3°9.462 0.8 312 17.2 101220 74
2002-08-01 09:08:19 51°22.7 3°9.461 0.9 325 17.2 101220 74
2002-08-01 09:08:24 51°22.7 3°9.46 1 314 17.2 101220 74
2002-08-01 09:08:29 51°22.7 3°9.459 1.3 307 17.3 101220 74
2002-08-01 09:08:34 51°22.7 3°9.459 1.3 297 17.3 101220 74
2002-08-01 09:08:39 51°22.701 3°9.458 1.9 305 17.3 101220 75
2002-08-01 09:08:44 51°22.701 3°9.457 2.1 306 17.3 101220 75
2002-08-01 09:08:49 51°22.701 3°9.457 1.2 320 17.2 101220 75
2002-08-01 09:08:54 51°22.702 3°9.456 1.4 321 17.2 101220 75
2002-08-01 09:08:59 51°22.702 3°9.455 1.3 321 17.3 101220 75
2002-08-01 09:09:04 51°22.702 3°9.455 1.3 325 17.3 101220 75
2002-08-01 09:09:09 51°22.703 3°9.454 0.8 330 17.3 101210 74
2002-08-01 09:09:15 51°22.704 3°9.454 1.1 332 17.3 101210 74
2002-08-01 09:09:19 51°22.704 3°9.453 1.1 343 17.3 101220 74
2002-08-01 09:09:24 51°22.705 3°9.453 1.2 350 17.3 101220 74
2002-08-01 09:09:29 51°22.705 3°9.452 0.9 352 17.3 101220 74
2002-08-01 09:09:34 51°22.706 3°9.452 1.1 331 17.3 101220 74
2002-08-01 09:09:39 51°22.707 3°9.451 0.8 334 17.3 101220 74
2002-08-01 09:09:44 51°22.708 3°9.451 0.8 328 17.3 101220 74
2002-08-01 09:09:49 51°22.709 3°9.451 0.6 318 17.3 101220 74
2002-08-01 09:09:54 51°22.71 3°9.45 2.5 303 17.3 101220 74
2002-08-01 09:09:59 51°22.711 3°9.45 2.1 311 17.3 101220 74
2002-08-01 09:10:04 51°22.713 3°9.45 2.2 302 17.3 101220 74
2002-08-01 09:10:09 51°22.714 3°9.45 1.1 316 17.3 101220 74
2002-08-01 09:10:14 51°22.715 3°9.45 3.1 308 17.3 101220 74
2002-08-01 09:10:19 51°22.716 3°9.45 4.3 301 17.3 101220 74
2002-08-01 09:10:24 51°22.718 3°9.45 2.3 297 17.3 101220 74
2002-08-01 09:10:29 51°22.719 3°9.45 1.7 303 17.2 101220 74
2002-08-01 09:10:34 51°22.721 3°9.45 1.2 322 17.2 101220 74
2002-08-01 09:10:39 51°22.722 3°9.45 1 326 17.2 101220 74
2002-08-01 09:10:44 51°22.723 3°9.45 1.4 304 17.2 101220 74
2002-08-01 09:10:49 51°22.725 3°9.45 1.6 313 17.2 101220 74
2002-08-01 09:10:53 51°22.726 3°9.45 1.3 323 17.2 101220 74
2002-08-01 09:10:59 51°22.727 3°9.45 1 329 17.2 101220 74
2002-08-01 09:11:04 51°22.729 3°9.45 1 343 17.2 101220 74
2002-08-01 09:11:09 51°22.73 3°9.45 0.8 324 17.3 101220 75
2002-08-01 09:11:14 51°22.731 3°9.451 0.6 327 17.3 101220 75
2002-08-01 09:11:19 51°22.733 3°9.451 0.6 324 17.3 101220 75
2002-08-01 09:11:24 51°22.734 3°9.451 0.9 317 17.3 101220 75
2002-08-01 09:11:29 51°22.735 3°9.452 0.9 325 17.3 101220 75
2002-08-01 09:11:34 51°22.736 3°9.452 1 339 17.3 101220 75
2002-08-01 09:11:39 51°22.737 3°9.453 1.3 335 17.3 101220 74
2002-08-01 09:11:44 51°22.738 3°9.453 1.1 337 17.3 101220 74
2002-08-01 09:11:49 51°22.739 3°9.454 1.7 338 17.3 101220 74
2002-08-01 09:11:54 51°22.74 3°9.454 0.7 336 17.3 101220 74
2002-08-01 09:11:59 51°22.741 3°9.455 1.6 346 17.3 101220 74
2002-08-01 09:12:05 51°22.743 3°9.456 1.8 342 17.3 101220 74
2002-08-01 09:12:09 51°22.743 3°9.456 3 4 17.2 101230 74
2002-08-01 09:12:14 51°22.744 3°9.457 2.5 352 17.2 101230 74
2002-08-01 09:12:19 51°22.745 3°9.457 2.9 356 17.4 101220 74
2002-08-01 09:12:24 51°22.746 3°9.458 2.7 5 17.4 101220 74
2002-08-01 09:12:29 51°22.747 3°9.459 2.5 11 17.2 101230 74
2002-08-01 09:12:34 51°22.748 3°9.46 2.9 11 17.2 101230 74
2002-08-01 09:12:39 51°22.749 3°9.461 3.1 13 17.3 101230 74
2002-08-01 09:12:45 51°22.75 3°9.462 2.8 9 17.3 101230 74
2002-08-01 09:12:49 51°22.75 3°9.463 2.5 13 17.3 101230 74
2002-08-01 09:12:53 51°22.751 3°9.464 2.2 16 17.3 101230 74
2002-08-01 09:12:59 51°22.752 3°9.465 2.3 26 17.3 101230 75
2002-08-01 09:13:04 51°22.752 3°9.466 2.5 21 17.3 101230 75
2002-08-01 09:13:09 51°22.753 3°9.467 2.3 24 17.3 101230 75
2002-08-01 09:13:15 51°22.753 3°9.468 2.6 19 17.3 101230 75
2002-08-01 09:13:20 51°22.754 3°9.469 2.4 24 17.3 101230 75
2002-08-01 09:13:24 51°22.754 3°9.47 2.7 19 17.3 101230 75
2002-08-01 09:13:29 51°22.755 3°9.471 2.9 18 17.3 101230 75
2002-08-01 09:13:34 51°22.755 3°9.472 2.7 27 17.3 101230 75
2002-08-01 09:13:39 51°22.756 3°9.473 2.6 24 17.3 101230 74
2002-08-01 09:13:44 51°22.756 3°9.474 2.6 27 17.3 101230 74
2002-08-01 09:13:49 51°22.756 3°9.476 2.8 34 17.3 101230 75
2002-08-01 09:13:55 51°22.757 3°9.477 2.3 29 17.3 101230 75
2002-08-01 09:13:59 51°22.757 3°9.478 2.4 29 17.2 101230 75
2002-08-01 09:14:04 51°22.757 3°9.479 2.3 32 17.2 101230 75
2002-08-01 09:14:09 51°22.757 3°9.48 2.2 29 17.3 101230 75
2002-08-01 09:14:14 51°22.758 3°9.481 2.6 25 17.3 101230 75
2002-08-01 09:14:19 51°22.758 3°9.483 2.9 21 17.3 101230 75
2002-08-01 09:14:24 51°22.758 3°9.484 3.2 18 17.3 101230 75
2002-08-01 09:14:29 51°22.758 3°9.485 3.5 21 17.3 101230 76
2002-08-01 09:14:34 51°22.758 3°9.486 3.4 24 17.3 101230 76
2002-08-01 09:14:39 51°22.758 3°9.487 3.3 26 17.3 101240 75
2002-08-01 09:14:44 51°22.758 3°9.488 3.3 24 17.3 101240 75
2002-08-01 09:14:49 51°22.758 3°9.489 3.4 25 17.3 101230 75
2002-08-01 09:14:53 51°22.758 3°9.49 3 29 17.3 101230 75
2002-08-01 09:14:59 51°22.757 3°9.492 3 31 17.3 101230 75
2002-08-01 09:15:04 51°22.757 3°9.493 2.7 31 17.3 101230 75
2002-08-01 09:15:09 51°22.757 3°9.494 1.9 33 17.2 101240 74
2002-08-01 09:15:14 51°22.757 3°9.495 2.6 32 17.2 101240 74
2002-08-01 09:15:19 51°22.756 3°9.496 2.9 30 17.2 101240 73
2002-08-01 09:15:24 51°22.756 3°9.497 2.7 35 17.2 101240 73
2002-08-01 09:15:29 51°22.755 3°9.498 2.5 35 17.2 101230 73
2002-08-01 09:15:33 51°22.755 3°9.499 2.7 36 17.2 101230 73
2002-08-01 09:15:39 51°22.754 3°9.5 2.5 42 17.2 101240 73
2002-08-01 09:15:44 51°22.754 3°9.501 2.4 45 17.2 101240 73
2002-08-01 09:15:49 51°22.753 3°9.502 2.2 57 17.2 101230 73
2002-08-01 09:15:55 51°22.752 3°9.503 2.2 52 17.2 101230 73
2002-08-01 09:15:59 51°22.752 3°9.504 2.7 71 17.1 101230 73
2002-08-01 09:16:05 51°22.751 3°9.505 2.7 52 17.1 101230 73
2002-08-01 09:16:09 51°22.75 3°9.505 2.5 56 17.2 101230 73
2002-08-01 09:16:13 51°22.75 3°9.506 2 61 17.2 101230 73
2002-08-01 09:16:19 51°22.749 3°9.507 2.3 57 17.1 101230 73
2002-08-01 09:16:24 51°22.748 3°9.507 2.4 59 17.1 101230 73
2002-08-01 09:16:29 51°22.747 3°9.508 2.4 72 17.2 101230 73
2002-08-01 09:16:34 51°22.746 3°9.508 2.3 74 17.2 101230 73
2002-08-01 09:16:39 51°22.745 3°9.509 2.8 82 17.2 101230 73
2002-08-01 09:16:44 51°22.744 3°9.509 2.7 86 17.2 101230 73